MM3NTX-13 Weather Reports


time (UTC)temp
F
wind
direction
speed
knots
gust
knots
rain 1hr
in
rain 24hr
in
rain mn
in
humidity
%
barometer
mb
20260508142418 53 204 0.9 3.5 0.00 0.06 0.06 75 1016.5
20260508141518 54 225 0.9 1.7 0.00 0.06 0.06 73 1016.2
20260508140618 54 243 0.9 1.7 0.00 0.06 0.06 73 1016.0
20260508135718 54 248 0.9 1.7 0.00 0.06 0.06 77 1016.3
20260508134818 53 228 0.9 3.5 0.00 0.06 0.06 78 1016.2
20260508133918 54 225 0.9 3.5 0.00 0.06 0.06 79 1016.4
20260508133018 54 248 0.9 1.7 0.00 0.06 0.06 80 1016.1
20260508132118 54 248 0.9 1.7 0.00 0.06 0.06 81 1016.3
20260508131218 53 248 1.7 1.7 0.00 0.06 0.06 83 1016.1
20260508130318 53 248 0.9 1.7 0.01 0.06 0.06 85 1016.0
20260508125418 52 248 1.7 3.5 0.01 0.06 0.06 84 1016.1
20260508124518 53 248 0.9 1.7 0.01 0.06 0.06 82 1015.9
20260508123618 53 248 0.0 1.7 0.01 0.06 0.06 85 1016.0
20260508122718 52 248 0.0 1.7 0.01 0.06 0.06 86 1015.9
20260508121818 52 248 0.9 1.7 0.01 0.06 0.06 87 1016.0
20260508120918 52 250 0.9 1.7 0.00 0.05 0.05 87 1015.9
20260508120018 52 258 1.7 3.5 0.00 0.05 0.05 85 1015.9
20260508115118 53 262 1.7 3.5 0.00 0.05 0.05 83 1015.7
20260508114218 54 238 1.7 1.7 0.00 0.05 0.05 84 1015.4
20260508112418 52 209 1.7 3.5 0.01 0.05 0.05 84 1015.5
20260508111518 52 208 0.9 1.7 0.01 0.05 0.05 88 1015.5
20260508105718 51 228 0.9 1.7 0.02 0.05 0.05 91 1015.4
20260508104818 51 243 0.0 1.7 0.02 0.05 0.05 91 1015.3
20260508103918 51 248 0.0 1.7 0.02 0.05 0.05 90 1015.3
20260508101218 52 270 1.7 3.5 0.01 0.04 0.04 85 1015.0
20260508095418 52 248 1.7 3.5 0.00 0.02 0.02 83 1014.8
20260508093618 53 249 1.7 3.5 0.00 0.02 0.02 82 1014.6
20260508092718 53 248 2.6 3.5 0.00 0.02 0.02 80 1014.6
20260508091818 54 209 1.7 1.7 0.00 0.02 0.02 78 1014.5
20260508090918 54 191 1.7 3.5 0.00 0.02 0.02 77 1014.6
20260508090019 55 187 0.9 3.5 0.00 0.02 0.02 75 1014.3
20260508084218 55 208 2.6 5.2 0.00 0.02 0.02 75 1014.3
20260508082418 55 205 1.7 3.5 0.00 0.02 0.02 78 1014.4
20260508081519 54 191 1.7 3.5 0.00 0.02 0.02 80 1014.2
20260508080618 53 174 1.7 3.5 0.00 0.02 0.02 82 1014.4
20260508075718 52 147 0.9 1.7 0.00 0.02 0.02 86 1014.2
20260508074818 52 135 0.9 1.7 0.00 0.02 0.02 90 1014.1
20260508073918 52 135 0.0 1.7 0.00 0.02 0.02 91 1014.1
20260508073018 50 135 0.0 1.7 0.00 0.02 0.02 92 1013.9
20260508072118 50 135 0.9 1.7 0.00 0.02 0.02 94 1013.8
20260508071218 49 135 0.0 1.7 0.00 0.02 0.02 95 1013.6
20260508065418 49 158 0.9 1.7 0.00 0.02 0.02 96 1013.6
20260508064518 49 158 0.9 1.7 0.00 0.02 0.02 96 1013.4
20260508063618 49 158 0.9 1.7 0.00 0.02 0.02 97 1013.3
20260508062718 48 158 0.0 1.7 0.00 0.02 0.02 97 1013.4
20260508061818 49 158 0.0 1.7 0.00 0.02 0.02 97 1013.4
20260508060918 48 158 0.9 1.7 0.00 0.02 0.02 97 1013.2
20260508060019 48 0 0.0 0.0 0.00 0.02 0.02 97 1013.2
20260508055118 48 158 0.0 1.7 0.00 0.02 0.02 97 1013.2
20260508054218 47 158 0.0 1.7 0.01 0.02 0.02 97 1013.0
20260508053318 47 0 0.0 0.0 0.02 0.02 0.02 97 1013.1
20260508051519 47 158 0.0 1.7 0.02 0.02 0.02 96 1012.8
20260508050618 47 158 0.9 1.7 0.02 0.02 0.02 96 1012.5
20260508043918 48 158 0.0 1.7 0.01 0.01 0.01 93 1012.6
20260508043019 48 158 0.0 1.7 0.00 0.00 0.00 92 1012.5
20260508042118 48 0 0.0 0.0 0.00 0.00 0.00 90 1012.5
20260508041218 48 158 0.0 1.7 0.00 0.00 0.00 88 1012.5
20260508040318 48 165 0.0 1.7 0.00 0.00 0.00 87 1012.5
20260508034519 48 158 0.0 1.7 0.00 0.00 0.00 86 1012.4
20260508032718 48 0 0.0 0.0 0.00 0.00 0.00 85 1012.2
20260508031818 48 157 0.9 1.7 0.00 0.00 0.00 84 1012.3
20260508030918 48 158 0.0 1.7 0.00 0.00 0.00 84 1012.3
20260508030019 48 160 0.9 1.7 0.00 0.00 0.00 84 1012.2
20260508025118 48 163 0.9 1.7 0.00 0.00 0.00 84 1012.3
20260508023318 48 181 0.0 1.7 0.00 0.00 0.00 83 1012.2
20260508022418 48 173 1.7 3.5 0.00 0.00 0.00 82 1012.1
20260508021519 48 192 1.7 3.5 0.00 0.00 0.00 82 1012.3
20260508020618 48 205 1.7 3.5 0.00 0.00 0.00 81 1012.3
20260508015718 48 166 0.9 1.7 0.00 0.00 0.00 79 1012.2
20260508014818 47 112 0.9 1.7 0.00 0.00 0.00 81 1012.2
20260508013918 47 112 0.0 1.7 0.00 0.00 0.00 79 1012.2
20260508013019 47 116 0.9 3.5 0.00 0.00 0.00 79 1011.9
20260508012118 47 198 0.9 1.7 0.00 0.00 0.00 80 1012.0
20260508011218 48 178 0.9 1.7 0.00 0.00 0.00 80 1012.1
20260508010318 49 166 1.7 1.7 0.00 0.00 0.00 79 1011.9
20260508005418 49 160 1.7 3.5 0.00 0.00 0.00 79 1012.1
20260508004518 49 183 3.5 3.5 0.00 0.00 0.00 79 1012.1
20260508002718 49 177 1.7 3.5 0.00 0.00 0.00 79 1012.0
20260508000918 48 207 0.9 1.7 0.00 0.00 0.00 80 1012.3
20260508000018 49 249 1.7 5.2 0.00 0.00 0.00 79 1012.2
20260507235118 48 355 0.9 3.5 0.00 0.00 0.00 80 1012.2
20260507234218 49 181 2.6 6.1 0.00 0.00 0.00 78 1012.1
20260507233318 49 178 2.6 6.1 0.00 0.00 0.00 78 1011.8
20260507232418 49 169 3.5 5.2 0.00 0.00 0.00 77 1011.8
20260507231519 49 270 2.6 3.5 0.00 0.00 0.00 77 1011.9
20260507230619 49 250 3.5 7.8 0.00 0.00 0.00 77 1011.9
20260507224818 50 208 3.5 5.2 0.00 0.00 0.00 76 1011.6
20260507223918 50 221 3.5 7.0 0.00 0.00 0.00 76 1011.5
20260507221218 50 49 3.5 7.8 0.00 0.00 0.00 76 1011.6
20260507220318 50 236 2.6 5.2 0.00 0.00 0.00 77 1011.5
20260507215418 49 55 3.5 5.2 0.00 0.00 0.00 76 1011.6
20260507214519 49 337 1.7 3.5 0.00 0.00 0.00 79 1011.8
20260507213618 49 206 2.6 7.0 0.00 0.00 0.00 79 1011.7
20260507211818 49 244 3.5 7.8 0.00 0.00 0.00 79 1011.7
20260507210019 49 202 2.6 5.2 0.00 0.00 0.00 78 1011.8
20260507204218 49 171 1.7 3.5 0.00 0.00 0.00 77 1012.0
20260507203318 49 68 1.7 3.5 0.00 0.00 0.00 78 1011.8
20260507202418 50 149 1.7 3.5 0.00 0.00 0.00 77 1011.9
20260507195718 50 194 2.6 5.2 0.00 0.00 0.00 76 1012.1
20260507194818 51 184 2.6 3.5 0.00 0.00 0.00 75 1011.8
20260507193918 51 168 1.7 3.5 0.00 0.00 0.00 75 1011.8
20260507191218 51 175 2.6 6.1 0.00 0.00 0.00 74 1011.8
20260507190318 51 195 4.3 6.1 0.00 0.00 0.00 73 1011.6
20260507184519 52 198 2.6 3.5 0.00 0.00 0.00 73 1011.7
20260507183618 52 183 0.9 5.2 0.00 0.00 0.00 73 1011.6
20260507180919 53 207 3.5 7.0 0.00 0.00 0.00 71 1011.4
20260507180019 53 186 2.6 5.2 0.00 0.00 0.00 70 1011.1
20260507175118 53 205 2.6 3.5 0.00 0.00 0.00 69 1011.0
20260507173318 53 194 5.2 11.3 0.00 0.00 0.00 67 1011.0
20260507171519 54 198 3.5 7.0 0.00 0.00 0.00 66 1011.3
20260507170619 54 177 6.1 11.3 0.00 0.00 0.00 66 1011.3
20260507165719 54 192 5.2 9.6 0.00 0.00 0.00 65 1011.2
20260507164819 54 198 4.3 7.0 0.00 0.00 0.00 64 1011.3
20260507163918 54 193 5.2 7.8 0.00 0.00 0.00 66 1011.3
20260507163019 54 202 5.2 7.8 0.00 0.00 0.00 64 1011.4
20260507162119 55 182 4.3 7.0 0.00 0.00 0.00 64 1011.3
20260507161219 55 192 3.5 7.0 0.00 0.00 0.00 62 1011.4
20260507160318 55 182 3.5 7.0 0.00 0.00 0.00 63 1011.3
20260507155419 54 188 5.2 7.8 0.00 0.00 0.00 62 1011.3
20260507154519 54 203 4.3 7.8 0.00 0.00 0.00 62 1011.5
20260507153618 54 216 4.3 9.6 0.00 0.00 0.00 60 1011.3
20260507152718 54 204 6.1 11.3 0.00 0.00 0.00 58 1011.5
20260507151819 55 188 5.2 11.3 0.00 0.00 0.00 57 1011.4
20260507150919 55 203 4.3 9.6 0.00 0.00 0.00 59 1011.4
20260507150019 54 185 7.8 9.6 0.00 0.00 0.00 61 1011.4
20260507145119 55 200 6.1 9.6 0.00 0.00 0.00 62 1011.5
20260507144218 55 217 4.3 9.6 0.00 0.00 0.00 59 1011.4
20260507143319 55 196 5.2 12.2 0.00 0.00 0.00 61 1011.5